DAL1869 KATL-MBPV

Flight info

Callsign DAL1869
Flight time N/A
Altitude 35000
Route VRSTY3 NOKIE DCT YANTI Q89 MANLE Y185 CVIKK DCT KRTIS DCT OREDE BR1L RAHAM G629 PVN
Aircraft B739/M-SDE2E3FGHIRWXY/LB1

Departure

Time 2026-05-06 13:39
Airport Hartsfield Jackson Atlanta International Airport (KATL)

Arrival

Time N/A
Airport Providenciales International Airport (MBPV)
Time Latitude Longitude Altitude Speed Heading
2026-05-06 12:20 33.63781 -84.42629 1005 ft 0 kts 89°
2026-05-06 13:31 33.63781 -84.42651 1005 ft 4 kts 89°
2026-05-06 13:31 33.63781 -84.42683 1005 ft 4 kts 97°
2026-05-06 13:31 33.63788 -84.42713 1005 ft 4 kts 122°
2026-05-06 13:32 33.63805 -84.42732 1005 ft 4 kts 170°
2026-05-06 13:32 33.63812 -84.42733 1005 ft 1 kts 180°
2026-05-06 13:34 33.63790 -84.42733 1005 ft 9 kts 180°
2026-05-06 13:34 33.63694 -84.42734 1005 ft 17 kts 188°
2026-05-06 13:34 33.63590 -84.42733 1006 ft 17 kts 123°
2026-05-06 13:34 33.63581 -84.42597 1006 ft 16 kts 89°
2026-05-06 13:35 33.63581 -84.42461 1006 ft 17 kts 90°
2026-05-06 13:35 33.63580 -84.42306 1006 ft 20 kts 89°
2026-05-06 13:35 33.63579 -84.42124 1006 ft 23 kts 90°
2026-05-06 13:35 33.63579 -84.41929 1005 ft 23 kts 90°
2026-05-06 13:36 33.63579 -84.41743 1005 ft 22 kts 90°
2026-05-06 13:36 33.63580 -84.41560 1005 ft 22 kts 90°
2026-05-06 13:36 33.63581 -84.41383 1004 ft 21 kts 90°
2026-05-06 13:36 33.63582 -84.41210 1005 ft 20 kts 89°
2026-05-06 13:37 33.63582 -84.41043 1005 ft 20 kts 89°
2026-05-06 13:37 33.63583 -84.40881 1005 ft 19 kts 90°
2026-05-06 13:37 33.63539 -84.40753 1006 ft 18 kts 173°
2026-05-06 13:37 33.63471 -84.40846 1006 ft 13 kts 273°
2026-05-06 13:38 33.63471 -84.40852 1006 ft 0 kts 273°
2026-05-06 13:38 33.63472 -84.40874 1006 ft 16 kts 271°
2026-05-06 13:38 33.63471 -84.41354 1005 ft 98 kts 270°
2026-05-06 13:38 33.63463 -84.42454 1011 ft 163 kts 264°
2026-05-06 13:39 33.63450 -84.43937 1479 ft 183 kts 266°
2026-05-06 13:39 33.63445 -84.45407 2672 ft 165 kts 266°
2026-05-06 13:39 33.63449 -84.46816 3379 ft 179 kts 267°
2026-05-06 13:39 33.63448 -84.48398 3591 ft 205 kts 268°
2026-05-06 13:40 33.63450 -84.50190 3953 ft 221 kts 269°
2026-05-06 13:40 33.63452 -84.52114 4361 ft 238 kts 269°
2026-05-06 13:40 33.63454 -84.54137 5139 ft 243 kts 269°
2026-05-06 13:40 33.63456 -84.56134 6179 ft 238 kts 269°
2026-05-06 13:41 33.63457 -84.58154 6910 ft 245 kts 269°
2026-05-06 13:41 33.63456 -84.60211 7722 ft 247 kts 269°
2026-05-06 13:41 33.63455 -84.62277 8611 ft 245 kts 268°
2026-05-06 13:41 33.63248 -84.64294 9443 ft 246 kts 249°
2026-05-06 13:42 33.62400 -84.66083 10233 ft 250 kts 233°
2026-05-06 13:42 33.61046 -84.67475 10818 ft 265 kts 217°
2026-05-06 13:42 33.59446 -84.68594 11530 ft 268 kts 215°
2026-05-06 13:42 33.58924 -84.68927 11755 ft 271 kts 211°
2026-05-06 13:43 33.57540 -84.69433 12291 ft 283 kts 196°
2026-05-06 13:43 33.55522 -84.69436 12999 ft 298 kts 181°
2026-05-06 13:43 33.53450 -84.69044 13690 ft 305 kts 179°
2026-05-06 13:43 33.51346 -84.68602 14339 ft 308 kts 179°
2026-05-06 13:44 33.49209 -84.68169 14962 ft 313 kts 180°
2026-05-06 13:44 33.47046 -84.67751 15561 ft 317 kts 180°
2026-05-06 13:44 33.44879 -84.67341 16176 ft 321 kts 180°
2026-05-06 13:44 33.42693 -84.66532 16783 ft 345 kts 159°
2026-05-06 13:45 33.40799 -84.64582 17072 ft 380 kts 132°
2026-05-06 13:45 33.37909 -84.58827 17371 ft 422 kts 123°
2026-05-06 13:45 33.36476 -84.55683 17486 ft 438 kts 123°
2026-05-06 13:46 33.34983 -84.52423 17598 ft 453 kts 123°
2026-05-06 13:46 33.33432 -84.49089 17877 ft 462 kts 123°
2026-05-06 13:46 33.31861 -84.45762 18322 ft 466 kts 123°
2026-05-06 13:46 33.30247 -84.42387 18775 ft 469 kts 123°
2026-05-06 13:47 33.28612 -84.38994 19191 ft 472 kts 123°
2026-05-06 13:47 33.26959 -84.35578 19584 ft 476 kts 123°
2026-05-06 13:47 33.25291 -84.32140 19958 ft 479 kts 123°
2026-05-06 13:47 33.23613 -84.28682 20337 ft 483 kts 123°
2026-05-06 13:48 33.21918 -84.25193 20703 ft 486 kts 123°
2026-05-06 13:48 33.20217 -84.21691 21070 ft 490 kts 123°
2026-05-06 13:48 33.18503 -84.18164 21423 ft 493 kts 122°
2026-05-06 13:48 33.16777 -84.14615 21758 ft 496 kts 122°
2026-05-06 13:49 33.15037 -84.11042 22106 ft 499 kts 122°
2026-05-06 13:49 33.13308 -84.07492 22431 ft 502 kts 122°
2026-05-06 13:49 33.11548 -84.03884 22751 ft 505 kts 122°
2026-05-06 13:49 33.09775 -84.00259 23076 ft 507 kts 123°
2026-05-06 13:50 33.07678 -83.96903 23350 ft 504 kts 139°
2026-05-06 13:50 33.04662 -83.94076 23697 ft 499 kts 150°
2026-05-06 13:50 33.01787 -83.91741 23958 ft 501 kts 151°
2026-05-06 13:51 32.98889 -83.89406 24214 ft 503 kts 151°
2026-05-06 13:51 32.95989 -83.87052 24494 ft 505 kts 150°
2026-05-06 13:51 32.93081 -83.84661 24744 ft 507 kts 150°
2026-05-06 13:51 32.90217 -83.82284 25004 ft 509 kts 150°
2026-05-06 13:52 32.87314 -83.79862 25266 ft 511 kts 150°
2026-05-06 13:52 32.84400 -83.77429 25520 ft 513 kts 150°
2026-05-06 13:52 32.81476 -83.74990 25771 ft 515 kts 150°
2026-05-06 13:52 32.78536 -83.72540 26012 ft 517 kts 150°
2026-05-06 13:53 32.75586 -83.70087 26238 ft 519 kts 150°
2026-05-06 13:53 32.72623 -83.67625 26464 ft 521 kts 150°
2026-05-06 13:53 32.69641 -83.65152 26668 ft 523 kts 150°
2026-05-06 13:53 32.66668 -83.62643 26880 ft 527 kts 149°
2026-05-06 13:54 32.63710 -83.60055 27086 ft 529 kts 148°
2026-05-06 13:54 32.60753 -83.57422 27304 ft 531 kts 148°
2026-05-06 13:54 32.58797 -83.55670 27453 ft 532 kts 148°
2026-05-06 13:54 32.54868 -83.52158 27737 ft 535 kts 148°
2026-05-06 13:55 32.51885 -83.49506 27941 ft 536 kts 148°
2026-05-06 13:55 32.48889 -83.46857 28212 ft 537 kts 148°
2026-05-06 13:55 32.45897 -83.44218 28541 ft 536 kts 148°
2026-05-06 13:55 32.42904 -83.41585 28881 ft 535 kts 148°
2026-05-06 13:56 32.40921 -83.39843 29077 ft 536 kts 148°
2026-05-06 13:56 32.37926 -83.37215 29352 ft 537 kts 149°
2026-05-06 13:56 32.34926 -83.34585 29644 ft 538 kts 149°
2026-05-06 13:56 32.31908 -83.31940 29954 ft 538 kts 149°
2026-05-06 13:57 32.28897 -83.29303 30247 ft 539 kts 149°
2026-05-06 13:57 32.25890 -83.26670 30572 ft 538 kts 149°
2026-05-06 13:57 32.22884 -83.24039 30923 ft 536 kts 149°
2026-05-06 13:57 32.21865 -83.23148 31043 ft 536 kts 149°
2026-05-06 13:58 32.19623 -83.21188 31302 ft 535 kts 149°
2026-05-06 13:58 32.16627 -83.18573 31660 ft 535 kts 149°
2026-05-06 13:58 32.13666 -83.15989 31965 ft 535 kts 149°
2026-05-06 13:58 32.10665 -83.13374 32267 ft 535 kts 149°
2026-05-06 13:59 32.07668 -83.10764 32586 ft 535 kts 149°
2026-05-06 13:59 32.04675 -83.08159 32900 ft 534 kts 149°
2026-05-06 13:59 32.01672 -83.05549 33167 ft 534 kts 149°
2026-05-06 13:59 31.98712 -83.02977 33435 ft 535 kts 149°
2026-05-06 14:00 31.95710 -83.00371 33724 ft 535 kts 149°
2026-05-06 14:00 31.92714 -82.97772 34020 ft 535 kts 149°
2026-05-06 14:00 31.89719 -82.95176 34290 ft 534 kts 149°
2026-05-06 14:00 31.86718 -82.92577 34544 ft 534 kts 149°
2026-05-06 14:01 31.83727 -82.89988 34802 ft 533 kts 149°
2026-05-06 14:01 31.80742 -82.87406 35055 ft 532 kts 149°
2026-05-06 14:01 31.77763 -82.84819 35286 ft 533 kts 148°
2026-05-06 14:01 31.74834 -82.82138 35504 ft 534 kts 147°
2026-05-06 14:02 31.71945 -82.79383 35738 ft 535 kts 146°
2026-05-06 14:02 31.69075 -82.76603 35957 ft 535 kts 146°
2026-05-06 14:02 31.66245 -82.73858 36192 ft 534 kts 146°
2026-05-06 14:02 31.63374 -82.71090 36424 ft 533 kts 146°
2026-05-06 14:03 31.60498 -82.68338 36626 ft 533 kts 147°
2026-05-06 14:03 31.57624 -82.65606 36832 ft 532 kts 147°
2026-05-06 14:03 31.54743 -82.62880 37045 ft 532 kts 147°
2026-05-06 14:03 31.51859 -82.60158 37101 ft 534 kts 147°
2026-05-06 14:04 31.46082 -82.54713 37097 ft 532 kts 147°
2026-05-06 14:04 31.40331 -82.49294 37093 ft 529 kts 147°
2026-05-06 14:05 31.36497 -82.45685 37100 ft 527 kts 147°
2026-05-06 14:05 31.31471 -82.40961 37107 ft 526 kts 147°
2026-05-06 14:06 31.25790 -82.35629 37110 ft 526 kts 147°
2026-05-06 14:06 31.20074 -82.30274 37117 ft 527 kts 147°
2026-05-06 14:07 31.14329 -82.24901 37112 ft 529 kts 147°
2026-05-06 14:07 31.08559 -82.19512 37121 ft 532 kts 147°
2026-05-06 14:08 31.02809 -82.14149 37118 ft 534 kts 147°
2026-05-06 14:08 30.96956 -82.08699 37115 ft 536 kts 147°
2026-05-06 14:09 30.91162 -82.03312 37120 ft 537 kts 146°
2026-05-06 14:09 30.85314 -81.97883 37116 ft 537 kts 146°
2026-05-06 14:10 30.79474 -81.92470 37111 ft 537 kts 146°
2026-05-06 14:10 30.73629 -81.87061 37106 ft 536 kts 146°
2026-05-06 14:11 30.67798 -81.81673 37101 ft 534 kts 146°
2026-05-06 14:11 30.62011 -81.76349 37097 ft 532 kts 148°
2026-05-06 14:12 30.56010 -81.71352 37096 ft 528 kts 151°
2026-05-06 14:12 30.51987 -81.68180 37100 ft 527 kts 152°
2026-05-06 14:13 30.46705 -81.64010 37100 ft 527 kts 151°
2026-05-06 14:13 30.40659 -81.59176 37126 ft 527 kts 150°
2026-05-06 14:14 30.34676 -81.54363 37112 ft 527 kts 150°
2026-05-06 14:14 30.28644 -81.49518 37122 ft 527 kts 150°
2026-05-06 14:15 30.22610 -81.44685 37112 ft 528 kts 150°
2026-05-06 14:15 30.16575 -81.39858 37115 ft 528 kts 150°
2026-05-06 14:16 30.10506 -81.35014 37125 ft 528 kts 150°
2026-05-06 14:16 30.04459 -81.30197 37125 ft 528 kts 150°
2026-05-06 14:17 29.98446 -81.25414 37125 ft 528 kts 150°
2026-05-06 14:17 29.92404 -81.20612 37129 ft 527 kts 150°
2026-05-06 14:18 29.86359 -81.15814 37125 ft 527 kts 150°
2026-05-06 14:18 29.80199 -81.11310 37110 ft 519 kts 161°
2026-05-06 14:19 29.73571 -81.08139 37108 ft 514 kts 165°
2026-05-06 14:19 29.66923 -81.05119 37110 ft 513 kts 165°
2026-05-06 14:20 29.63606 -81.03590 37112 ft 513 kts 164°
2026-05-06 14:20 29.56600 -81.00308 37118 ft 514 kts 163°
2026-05-06 14:21 29.49981 -80.97185 37110 ft 514 kts 163°
2026-05-06 14:21 29.43368 -80.94068 37115 ft 514 kts 163°
2026-05-06 14:22 29.36740 -80.90953 37115 ft 514 kts 163°
2026-05-06 14:22 29.30117 -80.87847 37116 ft 514 kts 163°
2026-05-06 14:23 29.23499 -80.84747 37114 ft 514 kts 163°
2026-05-06 14:23 29.16874 -80.81649 37115 ft 514 kts 163°
2026-05-06 14:24 29.10283 -80.78570 37117 ft 514 kts 163°
2026-05-06 14:24 29.03658 -80.75479 37114 ft 514 kts 163°
2026-05-06 14:25 28.97034 -80.72392 37109 ft 514 kts 163°
2026-05-06 14:25 28.90444 -80.69227 37096 ft 518 kts 156°
2026-05-06 14:26 28.87382 -80.67014 37106 ft 523 kts 145°
2026-05-06 14:26 28.84648 -80.64259 37102 ft 526 kts 135°
2026-05-06 14:26 28.82337 -80.61023 37090 ft 527 kts 124°
2026-05-06 14:26 28.80329 -80.57512 37110 ft 527 kts 122°
2026-05-06 14:27 28.76413 -80.50503 37100 ft 527 kts 123°
2026-05-06 14:27 28.74399 -80.47001 37099 ft 528 kts 123°
2026-05-06 14:28 28.70178 -80.39807 37097 ft 528 kts 124°
2026-05-06 14:28 28.66073 -80.32873 37093 ft 528 kts 124°
2026-05-06 14:29 28.61979 -80.25977 37098 ft 528 kts 124°
2026-05-06 14:29 28.57869 -80.19057 37105 ft 528 kts 124°
2026-05-06 14:30 28.53756 -80.12138 37110 ft 527 kts 124°
2026-05-06 14:30 28.49641 -80.05227 37116 ft 527 kts 124°
2026-05-06 14:31 28.45529 -79.98331 37120 ft 527 kts 124°
2026-05-06 14:31 28.41415 -79.91444 37122 ft 526 kts 124°
2026-05-06 14:32 28.37293 -79.84554 37120 ft 526 kts 123°
2026-05-06 14:32 28.33201 -79.77726 37125 ft 526 kts 123°
2026-05-06 14:33 28.29082 -79.70864 37123 ft 525 kts 123°
2026-05-06 14:33 28.24962 -79.64012 37124 ft 525 kts 123°
2026-05-06 14:34 28.20837 -79.57161 37124 ft 525 kts 123°
2026-05-06 14:34 28.16712 -79.50321 37128 ft 525 kts 123°
2026-05-06 14:35 28.14683 -79.46962 37127 ft 524 kts 123°
2026-05-06 14:35 28.10420 -79.39910 37125 ft 524 kts 123°
2026-05-06 14:36 28.06294 -79.33095 37125 ft 524 kts 123°
2026-05-06 14:36 28.02164 -79.26285 37127 ft 524 kts 123°
2026-05-06 14:37 27.98040 -79.19494 37125 ft 523 kts 123°
2026-05-06 14:37 27.93912 -79.12708 37125 ft 523 kts 123°
2026-05-06 14:38 27.89800 -79.05974 37126 ft 523 kts 123°
2026-05-06 14:38 27.85647 -78.99201 37126 ft 523 kts 123°
2026-05-06 14:39 27.81496 -78.92436 37125 ft 523 kts 123°
2026-05-06 14:39 27.77347 -78.85682 37125 ft 523 kts 123°
2026-05-06 14:40 27.73229 -78.78986 37125 ft 522 kts 123°
2026-05-06 14:40 27.69078 -78.72246 37123 ft 522 kts 123°
2026-05-06 14:41 27.64922 -78.65509 37124 ft 522 kts 123°
2026-05-06 14:41 27.60848 -78.58724 37118 ft 522 kts 121°
2026-05-06 14:42 27.56876 -78.51867 37122 ft 522 kts 121°
2026-05-06 14:42 27.54929 -78.48509 37122 ft 522 kts 121°
2026-05-06 14:43 27.50894 -78.41597 37119 ft 522 kts 121°
2026-05-06 14:43 27.46886 -78.34775 37118 ft 521 kts 121°
2026-05-06 14:44 27.43543 -78.29093 37119 ft 521 kts 121°
2026-05-06 14:45 27.37527 -78.18880 37119 ft 521 kts 121°
2026-05-06 14:45 27.33515 -78.12082 37119 ft 521 kts 121°
2026-05-06 14:46 27.29511 -78.05292 37118 ft 521 kts 121°
2026-05-06 14:46 27.25509 -77.98505 37113 ft 520 kts 121°
2026-05-06 14:47 27.21531 -77.91769 37117 ft 520 kts 121°
2026-05-06 14:47 27.17526 -77.84999 37118 ft 520 kts 121°
2026-05-06 14:48 27.13517 -77.78233 37115 ft 520 kts 121°
2026-05-06 14:48 27.09508 -77.71478 37114 ft 519 kts 121°
2026-05-06 14:49 27.05501 -77.64733 37110 ft 519 kts 121°
2026-05-06 14:49 27.01491 -77.57996 37113 ft 519 kts 122°
2026-05-06 14:50 26.97031 -77.51617 37116 ft 520 kts 129°
2026-05-06 14:50 26.94526 -77.48390 37111 ft 520 kts 130°
2026-05-06 14:51 26.89733 -77.42302 37111 ft 520 kts 130°
2026-05-06 14:51 26.84982 -77.36189 37112 ft 520 kts 129°
2026-05-06 14:52 26.80296 -77.30089 37109 ft 519 kts 129°
2026-05-06 14:52 26.75587 -77.23945 37108 ft 519 kts 129°
2026-05-06 14:53 26.70866 -77.17796 37112 ft 519 kts 129°
2026-05-06 14:53 26.66176 -77.11701 37107 ft 519 kts 129°
2026-05-06 14:54 26.61450 -77.05571 37110 ft 519 kts 129°
2026-05-06 14:54 26.56733 -76.99460 37108 ft 519 kts 129°
2026-05-06 14:55 26.52040 -76.93389 37107 ft 519 kts 129°
2026-05-06 14:55 26.47311 -76.87280 37108 ft 519 kts 129°
2026-05-06 14:56 26.42596 -76.81197 37107 ft 519 kts 129°
2026-05-06 14:56 26.37866 -76.75102 37109 ft 519 kts 129°
2026-05-06 14:57 26.33138 -76.69019 37108 ft 518 kts 129°
2026-05-06 14:57 26.28413 -76.62948 37108 ft 518 kts 129°
2026-05-06 14:58 26.25995 -76.59843 37106 ft 518 kts 129°
2026-05-06 14:58 26.21296 -76.53818 37108 ft 518 kts 129°
2026-05-06 14:59 26.16557 -76.47750 37105 ft 518 kts 129°
2026-05-06 14:59 26.11821 -76.41693 37107 ft 518 kts 129°
2026-05-06 15:00 26.07085 -76.35645 37107 ft 518 kts 129°
2026-05-06 15:00 26.02348 -76.29604 37110 ft 518 kts 129°
2026-05-06 15:01 25.97608 -76.23567 37107 ft 518 kts 129°
2026-05-06 15:01 25.92867 -76.17535 37106 ft 518 kts 129°
2026-05-06 15:02 25.88123 -76.11510 37109 ft 517 kts 129°
2026-05-06 15:02 25.83408 -76.05527 37109 ft 517 kts 129°
2026-05-06 15:03 25.78662 -75.99515 37105 ft 517 kts 129°
2026-05-06 15:03 25.73911 -75.93504 37116 ft 517 kts 129°
2026-05-06 15:04 25.69167 -75.87509 37121 ft 517 kts 129°
2026-05-06 15:04 25.64419 -75.81517 37114 ft 517 kts 129°
2026-05-06 15:05 25.59701 -75.75571 37114 ft 517 kts 129°
2026-05-06 15:05 25.57108 -75.72306 37114 ft 517 kts 129°
2026-05-06 15:06 25.52349 -75.66319 37117 ft 517 kts 129°
2026-05-06 15:06 25.47596 -75.60349 37116 ft 517 kts 129°
2026-05-06 15:07 25.42865 -75.54414 37117 ft 517 kts 129°
2026-05-06 15:07 25.38108 -75.48454 37115 ft 517 kts 129°
2026-05-06 15:08 25.33341 -75.42489 37117 ft 516 kts 128°
2026-05-06 15:08 25.28584 -75.36544 37120 ft 516 kts 128°
2026-05-06 15:09 25.23850 -75.30635 37120 ft 516 kts 128°
2026-05-06 15:09 25.19089 -75.24699 37119 ft 516 kts 128°
2026-05-06 15:10 25.14318 -75.18760 37123 ft 516 kts 128°
2026-05-06 15:10 25.09548 -75.12827 37123 ft 516 kts 128°
2026-05-06 15:11 25.04770 -75.06907 37119 ft 517 kts 129°
2026-05-06 15:11 24.99783 -75.01239 37122 ft 518 kts 132°
2026-05-06 15:12 24.94641 -74.95674 37123 ft 518 kts 133°
2026-05-06 15:12 24.89521 -74.90117 37123 ft 518 kts 132°
2026-05-06 15:13 24.86774 -74.87112 37119 ft 517 kts 132°
2026-05-06 15:13 24.81676 -74.81511 37118 ft 517 kts 132°
2026-05-06 15:14 24.76613 -74.75945 37119 ft 517 kts 132°
2026-05-06 15:14 24.71515 -74.70350 37118 ft 517 kts 132°
2026-05-06 15:15 24.66415 -74.64763 37121 ft 517 kts 132°
2026-05-06 15:15 24.61310 -74.59177 37118 ft 517 kts 132°
2026-05-06 15:16 24.56206 -74.53600 37119 ft 517 kts 132°
2026-05-06 15:16 24.51127 -74.48057 37117 ft 517 kts 131°
2026-05-06 15:17 24.46015 -74.42486 37116 ft 517 kts 131°
2026-05-06 15:17 24.40908 -74.36925 37118 ft 517 kts 131°
2026-05-06 15:18 24.35796 -74.31366 37117 ft 518 kts 131°
2026-05-06 15:18 24.30672 -74.25800 37116 ft 518 kts 131°
2026-05-06 15:19 24.25545 -74.20239 37117 ft 518 kts 131°
2026-05-06 15:19 24.20444 -74.14712 37114 ft 518 kts 131°
2026-05-06 15:20 24.16146 -74.10060 37115 ft 518 kts 131°
2026-05-06 15:20 24.12562 -74.06184 37115 ft 518 kts 131°
2026-05-06 15:21 24.07422 -74.00632 37115 ft 519 kts 131°
2026-05-06 15:21 24.02281 -73.95085 37113 ft 519 kts 131°
2026-05-06 15:22 23.97139 -73.89543 37111 ft 519 kts 131°
2026-05-06 15:22 23.91988 -73.83999 37113 ft 519 kts 131°
2026-05-06 15:23 23.86868 -73.78495 37112 ft 519 kts 131°
2026-05-06 15:23 23.81720 -73.72967 37109 ft 519 kts 131°
2026-05-06 15:24 23.76569 -73.67441 37112 ft 519 kts 131°
2026-05-06 15:24 23.71415 -73.61920 37112 ft 519 kts 131°
2026-05-06 15:25 23.66261 -73.56404 37111 ft 519 kts 131°
2026-05-06 15:25 23.61147 -73.50938 37111 ft 518 kts 131°
2026-05-06 15:26 23.55993 -73.45436 37111 ft 518 kts 131°
2026-05-06 15:26 23.50838 -73.39938 37109 ft 518 kts 131°
2026-05-06 15:27 23.45676 -73.34440 37112 ft 518 kts 131°
2026-05-06 15:27 23.41355 -73.29843 37111 ft 518 kts 131°
2026-05-06 15:28 23.37644 -73.25897 37110 ft 519 kts 131°
2026-05-06 15:28 23.32480 -73.20413 37110 ft 519 kts 131°
2026-05-06 15:29 23.27314 -73.14933 37110 ft 519 kts 131°
2026-05-06 15:29 23.22140 -73.09451 37111 ft 519 kts 131°
2026-05-06 15:30 23.16999 -73.04009 37109 ft 519 kts 131°
2026-05-06 15:30 23.11831 -72.98546 37066 ft 520 kts 131°
2026-05-06 15:30 23.09221 -72.95788 36794 ft 523 kts 131°
2026-05-06 15:31 23.06614 -72.93035 36551 ft 521 kts 131°
2026-05-06 15:31 23.04022 -72.90302 36301 ft 517 kts 131°
2026-05-06 15:31 23.01443 -72.87584 36060 ft 516 kts 131°
2026-05-06 15:32 22.96324 -72.82191 35589 ft 515 kts 131°
2026-05-06 15:32 22.93754 -72.79484 34930 ft 517 kts 132°
2026-05-06 15:32 22.91170 -72.76763 34156 ft 518 kts 132°
2026-05-06 15:32 22.88575 -72.74033 33207 ft 521 kts 133°
2026-05-06 15:33 22.86847 -72.72216 32602 ft 521 kts 133°
2026-05-06 15:33 22.84238 -72.69475 31691 ft 522 kts 133°
2026-05-06 15:33 22.81622 -72.66728 30759 ft 524 kts 134°
2026-05-06 15:33 22.78995 -72.63972 29682 ft 526 kts 134°
2026-05-06 15:34 22.76363 -72.61212 28552 ft 527 kts 134°
2026-05-06 15:34 22.73734 -72.58457 27448 ft 526 kts 135°
2026-05-06 15:34 22.71103 -72.55701 26315 ft 526 kts 135°
2026-05-06 15:34 22.68473 -72.52947 25302 ft 524 kts 135°
2026-05-06 15:35 22.65884 -72.50237 24627 ft 512 kts 135°
2026-05-06 15:35 22.65695 -72.50039 24547 ft 512 kts 135°
2026-05-06 15:35 22.63085 -72.47309 23751 ft 508 kts 135°
2026-05-06 15:35 22.60568 -72.44677 22791 ft 502 kts 136°
2026-05-06 15:36 22.58118 -72.42031 22153 ft 491 kts 134°
2026-05-06 15:36 22.55841 -72.39423 21851 ft 474 kts 133°
2026-05-06 15:36 22.53609 -72.36818 21007 ft 471 kts 133°
2026-05-06 15:36 22.51390 -72.34230 20253 ft 467 kts 134°
2026-05-06 15:37 22.49177 -72.31670 19469 ft 464 kts 134°
2026-05-06 15:37 22.46966 -72.29137 18680 ft 461 kts 135°
2026-05-06 15:37 22.44767 -72.26628 17809 ft 459 kts 135°
2026-05-06 15:37 22.42579 -72.24134 17038 ft 453 kts 135°
2026-05-06 15:38 22.40360 -72.21754 16242 ft 446 kts 144°
2026-05-06 15:38 22.37706 -72.20142 15604 ft 432 kts 161°
2026-05-06 15:38 22.34814 -72.19384 14917 ft 423 kts 176°
2026-05-06 15:38 22.31914 -72.19421 14245 ft 413 kts 188°
2026-05-06 15:39 22.29115 -72.19801 13507 ft 409 kts 189°
2026-05-06 15:39 22.26311 -72.20210 12791 ft 404 kts 189°
2026-05-06 15:39 22.23539 -72.20608 12081 ft 399 kts 189°
2026-05-06 15:39 22.20854 -72.20976 11882 ft 375 kts 188°
2026-05-06 15:40 22.18353 -72.21306 11668 ft 350 kts 188°
2026-05-06 15:40 22.15972 -72.21615 11161 ft 338 kts 188°
2026-05-06 15:40 22.13667 -72.21913 10731 ft 326 kts 188°
2026-05-06 15:40 22.11510 -72.22190 10746 ft 300 kts 188°
2026-05-06 15:41 22.09531 -72.22444 10703 ft 279 kts 188°
2026-05-06 15:41 22.07614 -72.22690 10223 ft 278 kts 188°
2026-05-06 15:41 22.05696 -72.22937 9732 ft 277 kts 188°
2026-05-06 15:41 22.03783 -72.23188 9197 ft 275 kts 190°
2026-05-06 15:42 22.02015 -72.23919 8670 ft 273 kts 216°
2026-05-06 15:42 22.00671 -72.25353 8170 ft 272 kts 232°
2026-05-06 15:42 22.00107 -72.26155 7924 ft 271 kts 233°